Back to catalog

STARLINK-38073

AliveCommunicationsSSO
NORAD 69986·PAYLOAD·🇺🇸 United States

Launched Jul 11, 2026 from Vandenberg Space Force Base

Loading…

Next Passes (next 24 hours)

TLE

FreshSource: CelesTrak SupGP

Epoch: Sep 14, 2026, 15:56 UTC

1 69986C 26159M   26257.66437500 -.00049799  00000+0 -91762-3 0  2578
2 69986  97.2845  99.3558 0001854  88.7855 106.2365 15.49209707    11

Track STARLINK-38073 in real time with AllMySat

Download on the App Store